C/2006 V1 (Catalina)
Epoch 2007 Dec. 6.0 TT = JDT 2454440.5  
T 2007 Nov. 26.54672 TT                                 Nakano
q   2.6747620            (2000.0)            P               Q
z  +0.0038355      Peri.  253.41422     -0.59755649     +0.77315605
 +/-0.0000016      Node   335.72190     -0.38148689     -0.50723743
e   0.9897410      Incl.   31.11927     -0.70526165     -0.38070975
From 660 observations 2006 Nov. 11-2008 Sept. 19, mean residual 0".56.
   (1/a)org.= +0.004492, (1/a)fut.= +0.006530 (+/-0.000002), Q= 8.
   The comet has passed 2.82 AU from Saturn on 2005 Aug. 30 and will
   pass 1.34 AU from Jupiter on 2009 Apr. 16.
Residuals in seconds of arc 
2006/                     070222 691  0.8-  0.5+    070413 048  0.5+  0.1+  
061111 703  1.5-  0.4+    070222 691  1.3-  0.8+    070413 048  0.1-  0.1+  
061111 703  0.2-  0.9+    070222 704 (2.6+  1.0+)   070414 J70 (5.2+  3.6-) 
061111 703  0.5-  1.0+    070222 704  1.0+  0.3+    070414 J70  0.9+  0.5-  
061111 703  0.4-  0.8+    070222 704  0.5+  1.4+    070414 E26  0.2-  0.1-  
061112 204  0.3-  0.1+    070222 704  0.7+  1.4+    070414 D88  0.2+  0.1+  
061112 204  0.1-  0.4+    070222 704  0.5-  0.4-    070414 D88  0.5+  0.1+  
061112 G96  0.5-  0.1-    070223 D88  0.5+  0.8-    070414 D88  0.2+  0.3+  
061112 G96  0.3-  0.1-    070223 D88  0.4+  0.2-    070414 E26  0.6-  0.8+  
061112 G96  0.0   0.2-    070223 D88  0.5+  0.1-    070414 561  0.0   0.1+  
061112 G96  0.4-  0.1+    070223 A77 (1.6+  3.1+)   070414 561  0.2-  0.1+  
061112 703  0.8-  0.1+    070223 A77 (2.9+  3.0-)   070414 561  0.3-  0.1-  
061112 703  0.6-  0.9+    070223 A77 (2.2-  8.8-)   070415 415  0.8-  0.1-  
061112 703  0.6+  0.7+    070223 A77  0.1-  1.5+    070415 415  0.6-  0.2-  
061112 703  0.2+  0.1+    070224 704 (2.0+  0.4+)   070415 D88  0.1+  0.1+  
061112 703  0.8-  0.5+    070224 704  0.5+  0.4-    070415 D88  0.5+  0.4-  
061112 703  0.0   0.9-    070224 704  0.9+  0.6+    070415 D88  0.0   0.1+  
061112 703  0.7+  1.4+    070224 704  0.7+  0.2-    070416 H47  0.2+  0.5+  
061112 703  1.1-  0.9+    070224 704 (2.1-  0.9+)   070416 H47  0.1+  0.1-  
061112 G96  0.2-  0.7-    070226 D88  0.0   0.6+    070416 J70  0.6+  0.2+  
061112 G96  0.0   0.3-    070226 D88  0.1-  0.6+    070416 J70  0.8+  0.0   
061112 G96  0.4+  0.5-    070226 D88  0.7+  0.2+    070416 J70  1.1+  0.4+  
061112 G96  0.1+  0.2-    070301 349  0.8+  0.2+    070420 585  0.7+  0.3+  
061113 448  0.5+  0.2+    070301 349  0.9+  0.3+    070420 585  0.2-  0.3-  
061113 448  0.3+  0.4-    070301 349  0.8+  0.4+    070420 585  0.3-  0.1+  
061113 448  0.2+  0.4-    070303 232  0.4-  0.3-    070420 585  1.1+  0.8+  
061113 G96  1.0-  0.2-    070303 232  0.8+  0.6-    070421 J52  0.3-  0.2+  
061113 G96  0.1-  0.1-    070304 232  0.2+  0.4-    070421 J52  0.6+  0.4-  
061113 G96  0.4-  0.3+    070307 355  0.2-  0.1+    070421 J52  0.5+  0.2-  
061113 G96  0.6-  0.1+    070307 355  0.2-  0.1+    070422 H47  0.1-  0.2-  
061113 G96  0.2-  0.4+    070307 355  0.2-  0.1+    070422 H47  0.1+  0.3+  
061113 G96  0.3-  0.1+    070308 644  0.0   0.0     070423 213  0.3+  0.2-  
061113 G96  1.0-  0.4+    070308 644  0.0   0.0     070423 213  0.2-  0.1-  
061115 673  0.6+  0.2+    070308 644  0.1-  0.1-    070423 213  0.2-  0.8+  
061115 673  0.2-  0.4-    070308 D88  0.9-  0.2-    070423 J67  0.1+  0.5-  
061115 673  0.0   0.1+    070308 D88  0.5-  0.2+    070423 J67  0.1+  0.1-  
061115 673  0.2+  0.1-    070308 D88  0.2-  0.1-    070423 J67  0.5-  0.2-  
061115 G96  0.5+  0.8-    070309 644  0.4-  0.2-    070423 J70 (1.1-  3.4-) 
061115 G96  0.1+  0.9-    070309 644  0.3-  0.1-    070423 J70  0.1+  0.4-  
061115 G96  0.2+  0.7-    070309 644  0.1-  0.0     070423 J70  0.3+  0.6-  
061115 G96  0.1-  1.0-    070309 703  1.0-  0.9+    070423 J70  0.4+  0.5-  
061115 349  0.7+  0.2+    070309 703  0.2-  1.0+    070428 349  0.9+  0.7-  
061115 349  0.6+  0.1+    070309 703  0.0   0.8+    070428 349  0.9+  0.7-  
061115 349  0.7+  0.0     070309 703  0.9-  1.7+    070429 D88  0.8+  0.2+  
061119 704  0.4+  0.3+    070309 400  0.1-  0.4-    070429 D88  0.7+  0.4+  
061119 704  0.3+  1.0+    070309 400  0.2-  0.2-    070429 D88  0.6+  0.4+  
061119 704  1.4-  1.2+    070309 400  0.0   0.1+    070429 213  0.4-  0.2+  
061119 691  0.1-  0.3+    070309 400  0.5+  0.0     070429 213  0.7-  0.2+  
061119 691  0.1+  0.1+    070309 B30  0.1-  0.4+    070429 213  0.1-  0.3-  
061119 691  0.1-  0.3+    070309 B30  0.0   0.3-    070430 H47  0.2+  0.1+  
061121 G96  0.0   0.0     070310 644  0.5-  0.3-    070430 H47  0.1+  0.9-  
061121 G96  0.1-  0.3-    070310 644  0.1-  0.1+    070505 H47  0.3+  0.3+  
061121 G96  0.1-  0.1-    070310 644  0.3-  0.3-    070505 H47  0.5+  0.3+  
061121 G96  0.0   0.2-    070310 644  0.3-  0.0     070505 939  0.3+  0.1+  
061122 704  0.8-  1.2+    070310 644  0.3-  0.0     070505 939  0.2+  0.0   
061122 704  0.1-  0.3+    070310 644  0.2-  0.1+    070505 939  0.2+  0.0   
061122 704  0.2+  0.4+    070310 J59 (0.8-  2.9+)   070505 J67  0.5-  0.6-  
061122 704  0.1+  0.6+    070310 J59  0.5+  0.3+    070505 J67  0.2-  0.1-  
061122 704  0.0   0.8+    070310 J59  0.8-  0.2+    070505 J67  0.9+  0.1+  
061126 691  0.5-  0.5+    070311 B30  1.2+  0.5-    070505 232  0.1-  0.9-  
061126 691  0.5-  0.3+    070311 B30  0.1-  0.2-    070505 232  0.1-  0.8-  
061126 691  0.8-  0.5+    070311 232  0.9-  0.4-    070505 232  0.5-  0.1+  
061211 118  0.4+  0.6+    070311 232  0.8-  0.1-    070506 H47  0.3+  0.2-  
061211 118  0.4+  0.5+    070311 232  0.6-  0.3-    070506 H47  0.2+  0.2+  
061211 118  0.1+  0.4+    070311 349  0.3+  0.0     070506 458  1.0+  0.0   
061215 215  0.2-  0.1+    070311 349  0.5+  0.1+    070506 458  0.5-  0.8-  
061215 215  0.3-  0.3+    070311 349  0.3+  0.1-    070507 D88  0.5+  0.3-  
061215 215  0.5-  0.6+    070311 939  0.4+  0.0     070507 D88  0.4+  0.2-  
061215 704  0.5-  1.9+    070311 939  0.1+  0.2+    070507 D88  0.6+  0.6-  
061215 704 (2.0+  1.5+)   070311 939  0.1-  0.3+    070507 J76  0.1-  0.0   
061215 704 (2.3+  0.4-)   070311 J53  0.1+  0.2-    070507 J76  0.2+  0.1+  
061215 704  1.2+  0.9-    070311 J53  0.4-  0.0     070507 J76  0.1+  0.0   
061216 246  0.2+  0.3-    070311 J53  0.6-  0.4-    070508 D88  0.3+  0.3+  
061216 246  0.3+  0.2-    070312 A82  0.1-  0.2+    070508 D88  0.3+  0.1+  
061216 246  0.3+  0.6-    070312 A82  0.1-  0.0     070508 D88  0.3+  0.6+  
061216 246  0.1+  0.4-    070312 A82  0.5-  0.1-    070508 J78  0.1-  0.3+  
061216 246  0.1-  0.4+    070312 A82  0.3-  0.1-    070508 J78  0.5+  0.2+  
061216 246  0.5+  0.4-    070312 A82  0.0   0.0     070508 J70  0.5+  1.7-  
061216 246  0.4+  0.0     070312 A82  0.1-  0.2-    070508 J70  0.4-  1.1-  
061217 704  0.6+  0.6+    070312 A82  0.1+  0.3-    070508 J70 (1.0+  2.7-) 
061217 704  0.6+  0.5+    070313 D88  0.9+  0.2-    070508 J78  1.2+  0.4-  
061217 704  1.2+  0.1+    070313 D88  0.3+  0.4+    070508 J70  0.0   1.5-  
061217 704  1.2+  1.6-    070313 D88  0.6+  0.0     070510 619  0.3-  0.2-  
061217 704  1.3+  1.8-    070314 415  0.0   0.4-    070510 A03  0.1-  0.2+  
061222 130  0.3-  0.2-    070314 415  0.1-  0.6-    070510 A03  0.2+  0.2-  
061222 130  0.3-  0.3+    070314 203  0.8-  0.1-    070510 A03  0.4+  0.1-  
061222 130  0.1-  0.5-    070314 B30  0.6+  0.3-    070510 213  0.3-  0.1+  
061222 704  0.5+  1.4+    070314 B30  0.7-  0.6+    070510 J78  0.5+  0.5-  
061222 704  1.8+  0.1-    070314 B30  1.2-  0.0     070510 213  0.7+  0.5-  
061222 704  1.3+  1.1+    070314 203  0.2-  0.2+    070510 213  1.1+  0.6+  
061222 704  0.9+  1.1+    070315 704  1.9+  1.6+    070510 J78  0.2+  0.3+  
061222 704  1.5+  0.7-    070315 703  0.5-  1.1+    070510 J78  0.1-  0.2+  
061222 349  0.3+  0.5-    070315 704  0.6+  0.5+    070511 415  0.0   0.1+  
061222 349  0.0   0.7-    070315 703  0.4-  0.0     070511 415  0.5-  0.4-  
061222 349  0.1-  1.0-    070315 704  0.4+  0.8-    070511 J78  0.4-  0.2+  
061225 J70 (4.5+  8.3-)   070315 703  0.6-  0.0     070511 J78  0.2+  0.1+  
061225 J70 (6.1+  0.8+)   070315 703  1.2-  0.0     070511 J78  0.1+  0.1+  
061225 J70 (8.4+  4.5-)   070315 704  0.3-  0.5+    070511 J53  0.1+  0.3-  
061227 A79  1.6+  1.0-    070315 704 (3.2-  0.8+)   070511 J53  0.3+  0.0   
061227 A79  0.6+  0.2-    070315 704  1.4+  0.5+    070511 J53  0.6+  0.2-  
061227 A79  1.9+  0.8-    070315 704  0.1+  0.3-    070512 415  0.1-  0.2-  
061227 118  0.1-  0.1+    070315 704  0.4+  1.0-    070512 415  0.5-  0.1+  
061227 118  0.4-  0.1-    070315 704  0.0   0.6+    070512 J67  0.4-  0.2+  
061227 118  0.3+  0.3-    070315 704  1.6-  0.5+    070512 J67  0.5-  0.0   
061227 G96  0.9-  0.2+    070315 235  0.1-  0.2-    070512 J67  0.6-  0.2-  
061227 G96  0.7-  0.1+    070316 H47  0.2-  1.0+    070513 H47  0.0   0.5+  
061227 G96  1.0-  0.3+    070316 H47  0.1+  0.2+    070513 H47  0.0   0.2+  
061227 G96  1.4-  0.4+    070317 H47  0.1+  0.1+    070515 D88  0.4-  0.2-  
061230 232  0.2+  0.1+    070317 H47  0.2+  0.3-    070515 D88  0.8-  0.3-  
061230 232  0.0   0.2+    070317 939  0.1-  0.5+    070515 D88  0.5-  0.3-  
061230 232  0.0   0.2+    070317 939  0.1-  0.5+    070518 B26 (3.3+  3.6-) 
061230 372  0.3+  0.8+    070317 939  0.1-  0.5+    070519 349  0.4-  0.6-  
061231 170  0.5-  0.2-    070317 232  0.1-  0.5-    070519 349  0.6-  0.5-  
061231 170  0.5-  0.3-    070317 232  0.6-  0.1+    070519 349  0.4-  0.5-  
061231 673  0.4+  0.4+    070317 232  0.6-  0.1+    070519 215  0.2-  0.4-  
061231 673  0.5+  0.2+    070317 A01  0.1-  0.0     070519 215  0.4-  0.4-  
061231 673  0.5+  0.0     070317 A01  0.1-  0.1-    070519 215  0.5-  0.2-  
061231 673  0.6+  0.2-    070318 A01  0.4+  0.5+    070520 H47  0.4+  0.0   
2007/                     070318 704 (2.6+  1.5+)   070520 H47  0.1+  0.2+  
070102 644  0.2-  0.0     070318 704  0.7-  0.2-    070520 432  0.2+  0.2-  
070102 644  0.1+  0.1+    070318 704  0.9-  0.1+    070520 432  0.1+  0.6-  
070102 644  0.3-  0.2-    070318 704  0.1-  0.8+    070521 H47  0.3-  0.1-  
070106 213  0.3+  0.6+    070318 213  0.1-  0.0     070521 H47  0.0   0.5+  
070106 213  0.6+  0.9+    070318 213  0.6-  0.0     070521 432  0.2+  0.2-  
070106 213  0.8+  0.6+    070318 213  0.2-  0.1-    070521 432  0.8+  0.3-  
070112 349  0.4+  0.8+    070318 J53  0.5-  0.3+    070523 J76 (2.6+  0.1+) 
070112 349  0.3+  0.8+    070318 J53  0.4-  0.0     070523 J76  1.1+  0.4+  
070112 349  0.2+  0.9+    070318 J53  0.2-  0.1-    070523 J76  0.1+  0.4+  
070113 J76  0.1+  0.3+    070321 703  0.7-  0.9+    070528 J70  0.2+  0.9-  
070113 J76  0.1-  0.0     070321 703  0.7-  0.3-    070528 J70  0.7-  1.1-  
070113 J76  0.0   0.2+    070321 703  0.6-  0.8+    070528 J70  0.5+  0.3-  
070116 561  0.5+  0.2+    070321 703  0.6-  0.2-    070528 J78  1.2+  0.3-  
070116 561  0.3+  0.1+    070321 704  1.7+  0.2+    070528 J78  0.3+  0.5+  
070116 561  0.6+  0.0     070321 704  1.9+  0.2+    070528 J78  0.9+  1.6+  
070116 704  1.1+  0.7+    070321 704  0.5+  0.5+    070530 J67  0.2-  0.7-  
070116 704  1.1+  0.7-    070321 704  0.9+  0.1+    070530 J67  0.5-  0.0   
070116 704 (2.1+  0.2-)   070321 704  1.2-  0.2-    070530 J67  0.7-  0.1+  
070116 704  0.1+  0.5-    070321 704  1.2+  0.4+    070604 J78  1.0+  0.5+  
070116 704  0.2+  1.7-    070321 704 (2.2+  1.2+)   070604 J78  1.6+  0.4-  
070117 G96  0.1-  0.5-    070321 704  0.2+  1.8-    070604 J78  0.2-  1.3+  
070117 G96  0.2+  0.4-    070321 704  1.4-  1.0-    070604 808  0.5-  0.5+  
070117 G96  0.1-  0.7-    070322 J70 (2.3+  2.3+)   070604 808  0.2+  0.1-  
070117 G96  0.0   0.2-    070322 J70 (0.6+  2.7-)   070604 808  0.2+  0.2-  
070120 J70  1.1+  0.8+    070322 J70 (0.4-  2.4+)   070604 808  1.0-  0.1+  
070120 232  0.9-  0.2-    070322 J70 (0.1-  2.5+)   070604 808  0.2-  0.7-  
070120 232  1.1-  0.0     070324 844  0.8+  0.3+    070606 415  0.1+  0.7-  
070120 232  1.0-  0.1-    070324 844  0.7+  0.2-    070606 415  0.0   0.6-  
070120 J76  0.4-  0.1+    070324 844  0.1+  0.7-    070610 J70 (2.7+  1.0-) 
070120 J76  0.3+  0.0     070324 844  0.2-  0.2-    070610 J70 (2.4+  2.1-) 
070120 J76  0.2+  0.2+    070325 B30  0.1-  1.2+    070610 J70 (3.3+  1.2-) 
070123 A32  0.4+  0.2+    070325 B30  0.5-  0.1+    070611 J67  0.7-  0.6-  
070123 A32  0.1+  0.2+    070325 B30  1.6+  0.4+    070611 J67  0.2-  0.1-  
070123 A32  0.2-  0.1+    070325 B30  0.4+  0.0     070611 J67  0.3-  0.3-  
070123 704  1.5+  0.7+    070325 B30  0.3-  0.6-    070613 J76  0.3-  0.5-  
070123 704  0.8-  0.8+    070326 B30  0.8+  0.3-    070613 J76  0.7-  0.4+  
070123 704 (2.2-  1.4+)   070326 B30  0.2+  0.0     070613 J76  0.0   0.3+  
070123 699  0.7-  0.5+    070326 B30  0.2+  0.0     070614 E12  0.0   0.0   
070123 704  0.5-  1.7-    070326 B30  0.1+  0.2+    070614 E12  0.1+  0.3-  
070123 699  0.8-  0.5+    070326 B30  0.1+  0.4+    070614 E12  0.0   0.2-  
070123 699  1.2-  0.9+    070404 D88  0.5+  0.6+    070623 415  0.8-  0.2+  
070123 699  0.8-  0.2+    070404 D88  0.5+  0.2+    070623 415  0.6-  0.3+  
070123 322  0.4+  0.5-    070404 D88  0.4+  0.5+    071229 415  1.1-  0.3+  
070123 322  0.2-  0.2-    070406 213  0.3-  0.2-    071229 415 (2.1-  0.0 ) 
070123 322  0.1+  0.3-    070406 442  0.4-  0.2+    2008/                   
070127 850  0.2-  0.0     070406 213  0.4-  0.3-    080320 467  0.3-  0.4-  
070127 850  0.7-  0.1+    070406 442  1.4+  0.6-    080320 467  0.6-  0.5-  
070127 850  0.1-  0.2+    070406 213  0.6+  0.4+    080320 467  0.4-  0.3-  
070127 850  0.2-  0.1-    070406 B30  0.0   0.3-    080320 467  0.5-  0.3-  
070128 939  0.5-  0.2+    070406 B30  0.4-  0.2-    080403 467  0.6+  0.0   
070128 939  0.4-  0.1-    070406 B30  0.1-  0.1+    080403 467  1.7-  1.4-  
070128 939  0.1-  0.1-    070406 B30  0.8-  0.2-    080403 467  0.1+  0.8-  
070128 213  0.5+  0.2-    070406 B30  0.3-  0.0     080404 423  0.7-  0.4-  
070128 213  0.4+  0.2-    070406 232  0.2+  0.2+    080404 423  1.0-  0.2+  
070128 213  0.2+  0.1-    070406 232  0.1-  0.0     080405 467  0.0   0.3-  
070128 147  0.3-  0.4-    070406 232  0.1-  0.1+    080405 467  0.0   0.2-  
070128 147  0.1-  0.2-    070406 A24  0.5-  0.2-    080405 467  0.1-  0.2-  
070128 232  0.0   0.2+    070406 A24  0.5-  0.2-    080405 423  0.7-  0.3-  
070128 232  0.3-  0.6+    070406 A24  0.3-  0.2+    080405 423  0.8-  0.5-  
070128 232  0.8-  0.4+    070407 A24  0.5-  0.1-    080502 423  1.1-  0.6-  
070128 203  0.9-  0.5-    070407 A18  0.1-  0.1-    080502 423  0.6-  0.1-  
070129 203  0.8-  0.8+    070408 A24  0.5+  0.4+    080505 E12  0.2+  0.3-  
070131 850  0.3-  0.1+    070408 A24  0.5-  0.3+    080510 474  0.4+  0.1+  
070131 850  0.4-  0.6+    070408 A24  0.1+  0.6+    080510 474  0.4+  0.2+  
070201 349  0.1+  0.5+    070408 A24  0.1-  0.5+    080510 474  0.5+  0.0   
070201 349  0.2+  0.6+    070408 A24  0.1-  0.6+    080528 467  0.4+  0.2-  
070201 349  0.2+  0.7+    070408 A24  0.1-  0.1+    080528 467  0.3+  0.2-  
070208 691  0.7-  0.3-    070409 224  0.8+  0.0     080528 467  0.2+  0.2-  
070208 691  0.6-  0.3-    070409 224  1.4+  0.9+    080529 415  0.3+  0.3-  
070208 691  0.7-  0.0     070409 224 (0.9+  3.0+)   080529 415  0.6+  0.0   
070210 213  0.4-  0.1-    070409 A24  0.1-  0.1+    080531 423  0.1-  0.3+  
070210 213  0.0   0.3-    070409 A24  0.1-  0.3+    080531 423  0.2+  0.3+  
070210 703  0.2-  0.3+    070409 A24  0.7+  0.9-    080604 E85  0.6+  0.0   
070210 703  0.1-  0.5-    070409 A24  1.2+  1.3-    080604 E85  0.2+  0.1-  
070210 703  0.6-  0.4-    070409 A24  1.3+  1.8-    080604 E85  0.5+  0.3-  
070210 703  0.2-  0.2+    070409 A24  1.6+  1.8-    080605 E12  0.2+  0.3-  
070213 704  1.6+  0.3+    070409 A24  1.2+  1.4-    080626 423  0.2+  0.1-  
070213 704  0.5+  1.0-    070409 A24  0.9+  0.8-    080626 423  0.1-  0.2+  
070213 704  0.6+  1.6-    070409 A24  0.0   0.3+    080702 423  0.4+  0.3-  
070213 704  0.4+  0.6-    070409 A24  0.1+  0.4+    080702 423  0.2-  0.2+  
070213 704  1.9-  0.6-    070410 704 (3.0+  1.5+)   080705 I32  0.2-  0.3+  
070215 644  0.2-  0.1+    070410 704  0.4-  0.6-    080708 I31  0.1+  0.2+  
070215 644  0.6-  0.1-    070410 704 (2.0-  0.2+)   080708 E85  0.3+  0.4-  
070215 644  0.1-  0.2-    070410 415  0.2-  0.3-    080708 E85  0.3+  0.1-  
070216 204  0.0   0.0     070410 415  0.1-  0.3-    080708 E85  0.1+  0.3-  
070216 204  0.1-  0.2-    070410 J59  0.4-  0.1-    080714 423  0.1+  0.7+  
070216 644  0.1-  0.0     070410 J59  0.0   0.2-    080720 I77 (0.9+  2.8-) 
070216 644  0.0   0.3-    070410 J59  0.0   1.3-    080720 I77 (0.7+  3.1-) 
070216 644  0.2-  0.0     070410 A24  0.1+  0.3+    080722 415  0.0   0.1+  
070216 467  0.3-  0.1-    070410 A24  0.1-  0.4+    080722 415  0.5+  0.1+  
070216 467  0.2+  0.0     070411 138  0.3+  0.5+    080725 I32  0.9-  0.5+  
070216 467  0.3+  0.0     070411 138  0.1-  0.1-    080725 I32  0.6-  0.5+  
070217 703  0.9-  1.4-    070411 138  0.7+  0.4+    080725 E12  0.0   0.1+  
070217 703 (2.0-  0.9-)   070411 215  0.0   0.1-    080730 423  0.5-  1.8+  
070217 703  1.9-  1.4-    070411 215  0.0   0.1-    080730 423  0.0   1.0+  
070217 703  0.6-  0.3-    070411 215  0.2+  0.1-    080730 415  0.4+  0.3+  
070217 H45  1.8-  0.4+    070411 A24  0.0   0.2-    080730 415  0.2-  0.7-  
070217 H45  0.4-  0.2+    070411 A24  0.2-  0.0     080808 I31  0.3-  0.6+  
070217 H45  0.1-  0.1-    070411 A24  0.1-  0.2-    080810 808  0.7-  0.8+  
070217 H45  0.1+  0.0     070411 A24  0.1-  0.1-    080810 808  0.7-  0.6+  
070217 644  0.1-  0.1-    070411 A24  0.3-  0.1-    080810 808  0.4+  0.3-  
070217 644  0.0   0.6-    070411 A24  0.1+  0.5-    080810 808  0.1-  0.7+  
070217 644  0.2-  0.1+    070411 A24  0.3-  0.0     080812 808  0.9-  0.7+  
070218 361  1.2-  0.5+    070412 A24  0.4-  0.1-    080812 808  0.3+  0.2-  
070218 361  0.2+  1.9-    070412 A24  0.8-  0.2+    080812 808  0.4+  0.6+  
070218 361  0.4-  0.6+    070412 A24  0.1-  0.3+    080812 808  0.6+  0.1-  
070218 A50  0.2-  0.3-    070412 H47  0.4+  0.0     080826 E12  0.1+  0.5+  
070218 A50  0.2-  0.2-    070412 H47  0.4-  0.5+    080826 E12  0.1+  0.4+  
070221 349  0.3+  0.1+    070412 561  0.4-  0.1+    080915 808  0.4+  1.1+  
070221 349  0.2+  0.1-    070412 561  0.2-  0.0     080915 808  0.2+  0.5+  
070221 372  1.1-  0.1-    070412 561  0.2-  0.0     080915 808  0.2+  1.1-  
070221 349  0.2+  0.1-    070413 048  0.7+  1.0+    080917 415  0.4+  1.2+  
070221 372  0.5-  0.6+    070413 048  0.4+  0.2+    080917 415  0.2-  0.2+  
070222 691  0.8-  0.5+    070413 048  0.0   0.1-    080919 E12  0.2+  1.0+  

